Location: Unspecified
(0.0000°N, 0.0000°E)
Time: 16:39:24
(UTC+00:00)

Vanguard 1 - Visible Passes

Search period start: 02 September 2014 00:00
Search period end: 12 September 2014 00:00
Orbit: 650 x 3838 km, 34.2° (Epoch: 30 August)

Date Brightness Start Highest point End Pass type
(mag) Time Alt. Az. Time Alt. Az. Time Alt. Az.
02 Sep 11.3 05:34:38 10° NNW 05:40:18 32° NNE 05:44:28 10° E visible
02 Sep 13.3 19:50:05 10° WSW 20:11:19 57° NW 20:32:39 10° NE visible
02 Sep 13.7 22:24:21 10° WNW 22:40:51 24° NNW 22:48:36 19° N visible
03 Sep 12.8 03:35:48 10° N 03:39:24 13° NNE 03:42:23 10° NE visible
03 Sep 12.9 17:47:29 10° SW 18:05:42 84° SE 18:29:41 10° NE visible
03 Sep 13.5 20:13:12 10° WSW 20:33:59 46° NW 20:54:12 10° NE visible
03 Sep 13.7 22:50:40 10° WNW 23:04:26 19° NNW 23:09:32 17° N visible
04 Sep 12.4 03:56:08 10° NNW 04:01:57 19° NNE 04:06:10 10° ENE visible
04 Sep 13.0 18:09:19 10° WSW 18:27:58 81° NW 18:51:53 10° NE visible
04 Sep 13.7 20:36:56 10° W 20:56:54 37° NNW 21:15:41 10° NNE visible
04 Sep 13.8 23:17:23 10° NW 23:28:20 16° NNW 23:30:11 15° N visible
05 Sep 13.3 02:00:37 11° NNE 02:00:37 11° NNE 02:02:09 10° NNE visible
05 Sep 11.8 04:17:05 10° NNW 04:24:15 28° NNE 04:29:01 10° E visible
05 Sep 13.2 18:31:27 10° WSW 18:50:24 67° NW 19:13:50 10° NE visible
05 Sep 13.8 21:01:22 10° W 21:20:08 30° NNW 21:37:12 10° NNE visible
05 Sep 13.9 23:43:45 10° NW 23:50:38 14° NNW 23:50:38 14° NNW visible
06 Sep 13.1 02:22:06 15° NNE 02:22:06 15° NNE 02:26:47 10° NE visible
06 Sep 11.0 04:38:24 10° NW 04:46:19 43° NNE 04:51:16 10° ESE visible
06 Sep 13.4 18:53:59 10° WSW 19:13:01 55° NW 19:35:37 10° NE visible
06 Sep 13.9 21:26:35 10° WNW 21:43:44 25° NNW 21:58:08 11° NNE visible
07 Sep 14.0 00:08:51 10° NNW 00:10:53 11° NNW 00:10:53 11° NNW visible
07 Sep 12.7 02:43:39 19° N 02:44:59 19° NNE 02:50:30 10° ENE visible
07 Sep 10.2 05:00:02 10° NW 05:08:07 72° NE 05:13:05 10° ESE visible
07 Sep 13.6 19:16:58 10° W 19:35:52 45° NNW 19:57:19 10° NE visible
07 Sep 13.8 21:52:27 10° WNW 22:07:41 20° NNW 22:18:15 14° NNE visible
08 Sep 12.2 03:05:10 24° N 03:07:36 26° NNE 03:13:32 10° ENE visible
08 Sep 9.9 05:22:02 10° WNW 05:29:40 67° SW 05:34:30 10° SE visible
08 Sep 13.8 19:40:32 10° W 19:59:01 36° NNW 20:19:01 10° NNE visible
08 Sep 13.8 22:18:34 10° NW 22:31:56 18° NNW 22:38:15 15° N visible
09 Sep 11.7 03:26:39 30° N 03:29:58 37° NNE 03:36:00 10° E visible
09 Sep 13.9 20:04:45 10° WNW 20:22:31 30° NNW 20:40:49 10° NNE visible
09 Sep 13.8 22:44:15 10° NW 22:56:18 17° N 22:58:09 16° N visible
10 Sep 11.0 03:48:03 34° NNW 03:52:04 55° NNE 03:58:03 10° ESE visible
10 Sep 13.5 17:58:37 10° WSW 18:15:06 52° NNW 18:37:47 10° NE visible
10 Sep 14.0 20:29:38 10° WNW 20:46:24 25° NNW 21:02:50 10° NNE visible
10 Sep 13.9 23:08:53 10° NNW 23:18:00 16° N 23:18:00 16° N visible
11 Sep 13.0 01:56:31 14° ENE 01:56:31 14° ENE 01:57:46 10° ENE visible
11 Sep 10.4 04:09:22 33° NW 04:13:53 84° NE 04:19:43 10° SE visible
11 Sep 13.7 18:21:31 10° W 18:38:04 42° NNW 18:59:38 10° NE visible
11 Sep 14.0 20:55:03 10° WNW 21:10:39 21° NNW 21:25:05 10° NNE visible
11 Sep 13.9 23:32:21 10° NNW 23:37:47 15° NNW 23:37:47 15° NNW visible
